Time,TemperatureF,DewpointF,PressureIn,WindDirection,WindDirectionDegrees,WindSpeedMPH,WindSpeedGustMPH,Humidity,HourlyPrecipIn,Conditions,Clouds,dailyrainin,SoftwareType,DateUTC
2013-01-07 00:00:00,34.1,30.9,30.10,NW,314,7.0,10.4,88,0.00,-SN,,0.02,WeatherDisplay:10.37,2013-01-07 05:00:00,
2013-01-07 00:01:00,34.1,30.9,30.10,NNW,338,7.1,11.5,88,0.00,-SN,,0.00,WeatherDisplay:10.37,2013-01-07 05:01:00,
2013-01-07 00:06:00,33.9,30.7,30.10,NW,326,5.9,11.5,88,0.00,-SN,,0.00,WeatherDisplay:10.37,2013-01-07 05:06:00,
2013-01-07 00:11:00,33.7,30.5,30.11,WNW,300,9.1,11.5,88,0.00,-SN,,0.00,WeatherDisplay:10.37,2013-01-07 05:11:00,
2013-01-07 00:16:00,33.5,30.3,30.12,West,271,6.1,9.2,88,0.00,-SN,,0.00,WeatherDisplay:10.37,2013-01-07 05:16:00,
2013-01-07 00:21:00,33.3,30.1,30.12,NW,314,8.5,12.7,88,0.00,-SN,,0.00,WeatherDisplay:10.37,2013-01-07 05:21:00,
2013-01-07 00:26:00,33.1,29.9,30.12,WNW,291,8.8,15.0,88,0.00,-SN,,0.00,WeatherDisplay:10.37,2013-01-07 05:26:00,
2013-01-07 00:31:00,32.8,29.6,30.12,NNW,330,8.4,11.5,88,0.00,-SN,,0.00,WeatherDisplay:10.37,2013-01-07 05:31:00,
2013-01-07 00:36:00,32.7,29.5,30.13,NW,304,7.7,11.0,88,0.00,-SN,,0.00,WeatherDisplay:10.37,2013-01-07 05:36:00,
2013-01-07 00:41:00,32.5,29.3,30.13,NW,318,10.3,13.8,88,0.00,-SN,,0.00,WeatherDisplay:10.37,2013-01-07 05:41:00,
2013-01-07 00:46:00,32.3,29.1,30.14,NW,311,11.5,15.0,88,0.00,-SN,,0.00,WeatherDisplay:10.37,2013-01-07 05:46:00,
2013-01-07 00:51:00,32.1,29.2,30.14,WNW,297,7.2,10.4,89,0.00,-SN,,0.00,WeatherDisplay:10.37,2013-01-07 05:51:00,
2013-01-07 00:56:00,31.9,29.0,30.14,NNW,330,8.0,10.4,89,0.00,-SN,,0.00,WeatherDisplay:10.37,2013-01-07 05:56:00,
2013-01-07 01:01:00,31.8,28.9,30.14,WSW,252,8.3,11.5,89,0.00,OVC,,0.00,WeatherDisplay:10.37,2013-01-07 06:01:00,
2013-01-07 01:06:00,31.7,28.8,30.15,WNW,302,9.0,10.4,89,0.00,OVC,,0.00,WeatherDisplay:10.37,2013-01-07 06:06:00,
2013-01-07 01:11:00,31.6,28.7,30.15,NW,322,7.6,11.5,89,0.00,OVC,,0.00,WeatherDisplay:10.37,2013-01-07 06:11:00,
2013-01-07 01:16:00,31.4,28.5,30.15,NW,311,7.3,11.5,89,0.00,OVC,,0.00,WeatherDisplay:10.37,2013-01-07 06:16:00,
2013-01-07 01:21:00,31.2,28.3,30.16,WNW,302,7.7,11.5,89,0.00,OVC,,0.00,WeatherDisplay:10.37,2013-01-07 06:21:00,
2013-01-07 01:26:00,31.0,28.1,30.16,WNW,287,5.7,6.9,89,0.00,OVC,,0.00,WeatherDisplay:10.37,2013-01-07 06:26:00,
2013-01-07 01:31:00,30.7,27.6,30.17,WNW,293,10.2,16.1,88,0.00,OVC,,0.00,WeatherDisplay:10.37,2013-01-07 06:31:00,
2013-01-07 01:36:00,30.4,27.3,30.17,WNW,283,7.4,9.2,88,0.00,OVC,,0.00,WeatherDisplay:10.37,2013-01-07 06:36:00,
2013-01-07 01:41:00,30.2,27.1,30.17,WNW,295,9.1,13.0,88,0.00,OVC,,0.00,WeatherDisplay:10.37,2013-01-07 06:41:00,
2013-01-07 01:46:00,30.1,27.0,30.18,WNW,290,10.2,12.7,88,0.00,OVC,,0.00,WeatherDisplay:10.37,2013-01-07 06:46:00,
2013-01-07 01:51:00,30.0,26.9,30.18,NW,304,9.4,11.5,88,0.00,OVC,,0.00,WeatherDisplay:10.37,2013-01-07 06:51:00,
2013-01-07 01:56:00,29.8,26.7,30.19,WNW,288,11.1,13.8,88,0.00,OVC,,0.00,WeatherDisplay:10.37,2013-01-07 06:56:00,
2013-01-07 02:01:00,29.7,26.6,30.20,WNW,295,7.5,10.4,88,0.00,OVC,,0.00,WeatherDisplay:10.37,2013-01-07 07:01:00,
2013-01-07 02:06:00,29.6,26.5,30.20,West,276,8.7,10.4,88,0.00,OVC,,0.00,WeatherDisplay:10.37,2013-01-07 07:06:00,
2013-01-07 02:11:00,29.4,26.3,30.20,WNW,294,6.8,9.2,88,0.00,OVC,,0.00,WeatherDisplay:10.37,2013-01-07 07:11:00,
2013-01-07 02:16:00,29.2,25.8,30.20,West,266,8.3,11.5,87,0.00,OVC,,0.00,WeatherDisplay:10.37,2013-01-07 07:16:00,
2013-01-07 02:21:00,29.0,25.6,30.20,WNW,297,6.1,9.2,87,0.00,OVC,,0.00,WeatherDisplay:10.37,2013-01-07 07:21:00,
2013-01-07 02:26:00,29.0,25.6,30.21,NW,304,7.7,11.5,87,0.00,OVC,,0.00,WeatherDisplay:10.37,2013-01-07 07:26:00,
2013-01-07 02:31:00,29.0,25.6,30.21,NW,312,5.4,11.5,87,0.00,OVC,,0.00,WeatherDisplay:10.37,2013-01-07 07:31:00,
2013-01-07 02:36:00,28.9,25.5,30.21,NW,305,6.3,8.1,87,0.00,OVC,,0.00,WeatherDisplay:10.37,2013-01-07 07:36:00,
2013-01-07 02:41:00,28.9,25.5,30.22,WNW,291,6.1,8.1,87,0.00,OVC,,0.00,WeatherDisplay:10.37,2013-01-07 07:41:00,
2013-01-07 02:46:00,28.6,24.9,30.22,NW,321,8.9,12.7,86,0.00,OVC,,0.00,WeatherDisplay:10.37,2013-01-07 07:46:00,
2013-01-07 02:51:00,28.5,24.8,30.23,NNE,30,5.7,10.4,86,0.00,OVC,,0.00,WeatherDisplay:10.37,2013-01-07 07:51:00,
2013-01-07 02:56:00,28.3,24.6,30.23,NW,311,7.3,10.4,86,0.00,OVC,,0.00,WeatherDisplay:10.37,2013-01-07 07:56:00,
2013-01-07 03:01:00,28.2,24.6,30.24,WNW,300,8.5,11.5,86,0.00,BKN,,0.00,WeatherDisplay:10.37,2013-01-07 08:01:00,
2013-01-07 03:06:00,28.1,24.5,30.24,NW,314,8.0,11.5,86,0.00,BKN,,0.00,WeatherDisplay:10.37,2013-01-07 08:06:00,
2013-01-07 03:11:00,28.0,24.4,30.24,NW,311,6.7,11.5,86,0.00,BKN,,0.00,WeatherDisplay:10.37,2013-01-07 08:11:00,
2013-01-07 03:16:00,27.8,24.2,30.24,West,272,7.0,8.1,86,0.00,BKN,,0.00,WeatherDisplay:10.37,2013-01-07 08:16:00,
2013-01-07 03:21:00,27.7,24.1,30.24,WNW,285,7.3,11.5,86,0.00,BKN,,0.00,WeatherDisplay:10.37,2013-01-07 08:21:00,
2013-01-07 03:26:00,27.6,24.2,30.24,WNW,288,5.7,8.1,87,0.00,BKN,,0.00,WeatherDisplay:10.37,2013-01-07 08:26:00,
2013-01-07 03:31:00,27.5,23.9,30.25,NW,307,4.9,8.1,86,0.00,BKN,,0.00,WeatherDisplay:10.37,2013-01-07 08:31:00,
2013-01-07 03:36:00,27.5,24.1,30.25,NW,304,4.7,9.2,87,0.00,BKN,,0.00,WeatherDisplay:10.37,2013-01-07 08:36:00,
2013-01-07 03:41:00,27.4,24.0,30.25,WNW,300,5.1,8.1,87,0.00,BKN,,0.00,WeatherDisplay:10.37,2013-01-07 08:41:00,
2013-01-07 03:46:00,27.3,23.9,30.25,NW,311,3.1,4.6,87,0.00,BKN,,0.00,WeatherDisplay:10.37,2013-01-07 08:46:00,
2013-01-07 03:51:00,27.3,23.9,30.26,West,277,5.3,6.9,87,0.00,BKN,,0.00,WeatherDisplay:10.37,2013-01-07 08:51:00,
2013-01-07 03:56:00,27.1,23.7,30.26,WNW,288,6.1,9.2,87,0.00,BKN,,0.00,WeatherDisplay:10.37,2013-01-07 08:56:00,
2013-01-07 04:01:00,26.9,23.3,30.26,WNW,298,3.2,6.9,86,0.00,OVC,,0.00,WeatherDisplay:10.37,2013-01-07 09:01:00,
2013-01-07 04:06:00,26.8,23.4,30.26,WNW,297,6.5,10.4,87,0.00,OVC,,0.00,WeatherDisplay:10.37,2013-01-07 09:06:00,
2013-01-07 04:11:00,26.7,23.4,30.26,WNW,289,5.1,8.1,87,0.00,OVC,,0.00,WeatherDisplay:10.37,2013-01-07 09:11:00,
2013-01-07 04:16:00,26.7,23.4,30.27,NNW,335,5.8,8.1,87,0.00,OVC,,0.00,WeatherDisplay:10.37,2013-01-07 09:16:00,
2013-01-07 04:21:00,26.7,23.4,30.27,NW,315,5.4,6.9,87,0.00,OVC,,0.00,WeatherDisplay:10.37,2013-01-07 09:21:00,
2013-01-07 04:26:00,26.7,23.4,30.27,NW,315,4.0,8.1,87,0.00,OVC,,0.00,WeatherDisplay:10.37,2013-01-07 09:26:00,
2013-01-07 04:31:00,26.7,23.6,30.27,WNW,288,4.3,5.8,88,0.00,OVC,,0.00,WeatherDisplay:10.37,2013-01-07 09:31:00,
2013-01-07 04:36:00,26.6,23.3,30.28,WNW,285,4.7,8.0,87,0.00,OVC,,0.00,WeatherDisplay:10.37,2013-01-07 09:36:00,
2013-01-07 04:41:00,26.5,23.2,30.28,WNW,296,6.2,11.5,87,0.00,OVC,,0.00,WeatherDisplay:10.37,2013-01-07 09:41:00,
2013-01-07 04:46:00,26.4,23.1,30.28,NW,307,5.5,10.4,87,0.00,OVC,,0.00,WeatherDisplay:10.37,2013-01-07 09:46:00,
2013-01-07 04:51:00,26.3,22.7,30.29,NNW,333,2.9,8.1,86,0.00,OVC,,0.00,WeatherDisplay:10.37,2013-01-07 09:51:00,
2013-01-07 04:56:00,26.2,22.6,30.29,NW,311,5.6,8.1,86,0.00,OVC,,0.00,WeatherDisplay:10.37,2013-01-07 09:56:00,
2013-01-07 05:02:00,26.1,22.5,30.29,WNW,301,5.1,8.1,86,0.00,OVC,,0.00,WeatherDisplay:10.37,2013-01-07 10:02:00,
2013-01-07 05:07:00,26.0,22.4,30.29,NW,312,4.6,8.1,86,0.00,OVC,,0.00,WeatherDisplay:10.37,2013-01-07 10:07:00,
2013-01-07 05:12:00,26.0,22.7,30.29,NW,325,4.4,6.9,87,0.00,OVC,,0.00,WeatherDisplay:10.37,2013-01-07 10:12:00,
2013-01-07 05:17:00,26.0,22.7,30.29,NNW,340,2.7,4.6,87,0.00,OVC,,0.00,WeatherDisplay:10.37,2013-01-07 10:17:00,
2013-01-07 05:22:00,25.9,22.6,30.29,NW,311,4.2,5.8,87,0.00,OVC,,0.00,WeatherDisplay:10.37,2013-01-07 10:22:00,
2013-01-07 05:27:00,25.9,22.6,30.29,NNW,330,3.4,4.6,87,0.00,OVC,,0.00,WeatherDisplay:10.37,2013-01-07 10:27:00,
2013-01-07 05:32:00,25.8,22.5,30.30,NW,311,5.2,5.8,87,0.00,OVC,,0.00,WeatherDisplay:10.37,2013-01-07 10:32:00,
2013-01-07 05:37:00,25.8,22.5,30.30,West,273,5.0,5.8,87,0.00,OVC,,0.00,WeatherDisplay:10.37,2013-01-07 10:37:00,
2013-01-07 05:42:00,25.8,22.2,30.30,NW,311,3.1,5.0,86,0.00,OVC,,0.00,WeatherDisplay:10.37,2013-01-07 10:42:00,
2013-01-07 05:47:00,25.7,22.1,30.31,West,277,3.5,4.6,86,0.00,OVC,,0.00,WeatherDisplay:10.37,2013-01-07 10:47:00,
2013-01-07 05:52:00,25.8,22.5,30.31,WNW,288,4.2,5.8,87,0.00,OVC,,0.00,WeatherDisplay:10.37,2013-01-07 10:52:00,
2013-01-07 05:57:00,25.8,22.2,30.31,NW,311,4.8,6.9,86,0.00,OVC,,0.00,WeatherDisplay:10.37,2013-01-07 10:57:00,
2013-01-07 06:02:00,25.7,22.1,30.32,NW,305,2.7,4.6,86,0.00,OVC,,0.00,WeatherDisplay:10.37,2013-01-07 11:02:00,
2013-01-07 06:07:00,25.7,22.1,30.32,NNW,328,3.3,5.8,86,0.00,OVC,,0.00,WeatherDisplay:10.37,2013-01-07 11:07:00,
2013-01-07 06:12:00,25.6,22.0,30.32,WNW,300,3.4,5.0,86,0.00,OVC,,0.00,WeatherDisplay:10.37,2013-01-07 11:12:00,
2013-01-07 06:17:00,25.5,21.9,30.32,WNW,302,2.9,5.8,86,0.00,OVC,,0.00,WeatherDisplay:10.37,2013-01-07 11:17:00,
2013-01-07 06:22:00,25.5,21.9,30.32,NW,307,5.5,8.1,86,0.00,OVC,,0.00,WeatherDisplay:10.37,2013-01-07 11:22:00,
2013-01-07 06:27:00,25.4,21.8,30.32,West,276,2.1,3.5,86,0.00,OVC,,0.00,WeatherDisplay:10.37,2013-01-07 11:27:00,
2013-01-07 06:32:00,25.4,21.8,30.33,NW,314,3.3,4.6,86,0.00,OVC,,0.00,WeatherDisplay:10.37,2013-01-07 11:32:00,
2013-01-07 06:37:00,25.3,21.7,30.33,NNW,338,4.8,6.9,86,0.00,OVC,,0.00,WeatherDisplay:10.37,2013-01-07 11:37:00,
2013-01-07 06:42:00,25.3,21.7,30.34,WNW,290,3.1,5.8,86,0.00,OVC,,0.00,WeatherDisplay:10.37,2013-01-07 11:42:00,
2013-01-07 06:47:00,25.3,21.7,30.34,NW,305,3.0,5.0,86,0.00,OVC,,0.00,WeatherDisplay:10.37,2013-01-07 11:47:00,
2013-01-07 06:52:00,25.3,21.7,30.34,NW,311,3.8,4.6,86,0.00,OVC,,0.00,WeatherDisplay:10.37,2013-01-07 11:52:00,
2013-01-07 06:57:00,25.3,21.7,30.34,NW,320,1.9,3.5,86,0.00,OVC,,0.00,WeatherDisplay:10.37,2013-01-07 11:57:00,
2013-01-07 07:02:00,25.3,21.7,30.34,WNW,291,3.3,3.5,86,0.00,OVC,,0.00,WeatherDisplay:10.37,2013-01-07 12:02:00,
2013-01-07 07:07:00,25.3,21.7,30.34,WNW,282,4.2,5.8,86,0.00,OVC,,0.00,WeatherDisplay:10.37,2013-01-07 12:07:00,
2013-01-07 07:12:00,25.1,21.5,30.34,NW,316,2.4,4.0,86,0.00,OVC,,0.00,WeatherDisplay:10.37,2013-01-07 12:12:00,
2013-01-07 07:17:00,25.1,21.5,30.35,WNW,293,1.7,2.3,86,0.00,OVC,,0.00,WeatherDisplay:10.37,2013-01-07 12:17:00,
2013-01-07 07:22:00,25.2,21.6,30.34,SW,224,1.9,3.5,86,0.00,OVC,,0.00,WeatherDisplay:10.37,2013-01-07 12:22:00,
2013-01-07 07:27:00,25.2,21.6,30.35,SW,224,1.3,2.3,86,0.00,OVC,,0.00,WeatherDisplay:10.37,2013-01-07 12:27:00,
2013-01-07 07:32:00,25.2,21.6,30.34,West,266,2.9,3.5,86,0.00,OVC,,0.00,WeatherDisplay:10.37,2013-01-07 12:32:00,
2013-01-07 07:37:00,25.2,21.6,30.34,West,274,1.5,3.5,86,0.00,OVC,,0.00,WeatherDisplay:10.37,2013-01-07 12:37:00,
2013-01-07 07:42:00,25.2,21.6,30.35,NW,311,3.6,4.6,86,0.00,OVC,,0.00,WeatherDisplay:10.37,2013-01-07 12:42:00,
2013-01-07 07:47:00,25.1,21.5,30.35,WNW,293,2.3,3.5,86,0.00,OVC,,0.00,WeatherDisplay:10.37,2013-01-07 12:47:00,
2013-01-07 07:52:00,25.1,21.5,30.35,WNW,290,1.3,2.3,86,0.00,OVC,,0.00,WeatherDisplay:10.37,2013-01-07 12:52:00,
2013-01-07 07:57:00,25.1,21.8,30.35,West,260,0.9,1.1,87,0.00,OVC,,0.00,WeatherDisplay:10.37,2013-01-07 12:57:00,
2013-01-07 08:02:00,25.1,21.5,30.35,West,280,1.0,2.3,86,0.00,OVC,,0.00,WeatherDisplay:10.37,2013-01-07 13:02:00,
2013-01-07 08:07:00,25.2,21.6,30.36,SW,228,1.7,3.0,86,0.00,OVC,,0.00,WeatherDisplay:10.37,2013-01-07 13:07:00,
2013-01-07 08:12:00,25.2,21.9,30.36,WSW,240,2.3,3.5,87,0.00,OVC,,0.00,WeatherDisplay:10.37,2013-01-07 13:12:00,
2013-01-07 08:17:00,25.2,21.6,30.36,SW,224,4.6,6.9,86,0.00,OVC,,0.00,WeatherDisplay:10.37,2013-01-07 13:17:00,
2013-01-07 08:22:00,25.3,21.7,30.37,SW,215,2.0,3.5,86,0.00,OVC,,0.00,WeatherDisplay:10.37,2013-01-07 13:22:00,
2013-01-07 08:27:00,25.4,21.8,30.37,SW,236,4.8,5.8,86,0.00,OVC,,0.00,WeatherDisplay:10.37,2013-01-07 13:27:00,
2013-01-07 08:32:00,25.4,21.8,30.37,WSW,250,4.8,6.9,86,0.00,OVC,,0.00,WeatherDisplay:10.37,2013-01-07 13:32:00,
2013-01-07 08:37:00,25.4,22.1,30.37,WSW,240,5.8,6.0,87,0.00,OVC,,0.00,WeatherDisplay:10.37,2013-01-07 13:37:00,
2013-01-07 08:42:00,25.4,21.8,30.37,WSW,247,2.8,6.9,86,0.00,OVC,,0.00,WeatherDisplay:10.37,2013-01-07 13:42:00,
2013-01-07 08:47:00,25.3,21.4,30.38,WSW,250,2.4,5.8,85,0.00,OVC,,0.00,WeatherDisplay:10.37,2013-01-07 13:47:00,
2013-01-07 08:52:00,25.4,21.5,30.38,SW,232,2.9,3.5,85,0.00,OVC,,0.00,WeatherDisplay:10.37,2013-01-07 13:52:00,
2013-01-07 08:57:00,25.4,21.8,30.39,SSW,210,5.7,5.8,86,0.00,OVC,,0.00,WeatherDisplay:10.37,2013-01-07 13:57:00,
2013-01-07 09:02:00,25.4,21.5,30.39,SW,226,5.2,8.0,85,0.00,BKN,,0.00,WeatherDisplay:10.37,2013-01-07 14:02:00,
2013-01-07 09:07:00,25.3,21.4,30.38,SSW,205,2.4,4.6,85,0.00,BKN,,0.00,WeatherDisplay:10.37,2013-01-07 14:07:00,
2013-01-07 09:12:00,25.4,21.5,30.38,SSW,192,3.0,4.6,85,0.00,BKN,,0.00,WeatherDisplay:10.37,2013-01-07 14:12:00,
2013-01-07 09:17:00,25.4,21.5,30.38,SW,219,4.8,5.0,85,0.00,BKN,,0.00,WeatherDisplay:10.37,2013-01-07 14:17:00,
2013-01-07 09:22:00,25.4,21.5,30.38,SSW,212,2.6,3.5,85,0.00,BKN,,0.00,WeatherDisplay:10.37,2013-01-07 14:22:00,
2013-01-07 09:27:00,25.5,21.6,30.38,SW,221,4.2,5.8,85,0.00,BKN,,0.00,WeatherDisplay:10.37,2013-01-07 14:27:00,
2013-01-07 09:32:00,25.5,21.6,30.38,SSW,207,4.0,4.6,85,0.00,BKN,,0.00,WeatherDisplay:10.37,2013-01-07 14:32:00,
2013-01-07 09:37:00,25.7,21.8,30.38,SW,222,4.6,6.0,85,0.00,BKN,,0.00,WeatherDisplay:10.37,2013-01-07 14:37:00,
2013-01-07 09:43:00,25.9,22.0,30.39,West,259,4.5,6.9,85,0.00,BKN,,0.00,WeatherDisplay:10.37,2013-01-07 14:43:00,
2013-01-07 09:48:00,26.0,21.8,30.39,WSW,248,3.0,3.5,84,0.00,BKN,,0.00,WeatherDisplay:10.37,2013-01-07 14:48:00,
2013-01-07 09:53:00,26.1,21.9,30.39,SW,228,2.8,3.5,84,0.00,BKN,,0.00,WeatherDisplay:10.37,2013-01-07 14:53:00,
2013-01-07 09:58:00,26.2,22.0,30.39,SW,235,4.2,4.6,84,0.00,BKN,,0.00,WeatherDisplay:10.37,2013-01-07 14:58:00,
2013-01-07 10:03:00,26.2,22.0,30.39,WSW,254,3.9,4.6,84,0.00,BKN,,0.00,WeatherDisplay:10.37,2013-01-07 15:03:00,
2013-01-07 10:08:00,26.5,22.6,30.40,WSW,250,4.8,7.0,85,0.00,BKN,,0.00,WeatherDisplay:10.37,2013-01-07 15:08:00,
2013-01-07 10:13:00,26.5,22.3,30.40,WSW,242,5.8,7.0,84,0.00,BKN,,0.00,WeatherDisplay:10.37,2013-01-07 15:13:00,
2013-01-07 10:18:00,26.5,22.3,30.40,WSW,250,5.2,6.9,84,0.00,BKN,,0.00,WeatherDisplay:10.37,2013-01-07 15:18:00,
2013-01-07 10:23:00,26.5,22.0,30.40,WSW,246,6.2,8.1,83,0.00,BKN,,0.00,WeatherDisplay:10.37,2013-01-07 15:23:00,
2013-01-07 10:28:00,26.5,22.0,30.40,West,272,5.2,8.1,83,0.00,BKN,,0.00,WeatherDisplay:10.37,2013-01-07 15:28:00,
2013-01-07 10:33:00,26.6,22.4,30.39,SW,233,4.7,5.0,84,0.00,BKN,,0.00,WeatherDisplay:10.37,2013-01-07 15:33:00,
2013-01-07 10:38:00,26.8,22.6,30.39,SW,233,4.6,5.8,84,0.00,BKN,,0.00,WeatherDisplay:10.37,2013-01-07 15:38:00,
2013-01-07 10:43:00,27.1,22.9,30.39,SW,233,4.6,6.0,84,0.00,BKN,,0.00,WeatherDisplay:10.37,2013-01-07 15:43:00,
2013-01-07 10:48:00,27.3,22.8,30.39,WSW,245,5.2,8.1,83,0.00,BKN,,0.00,WeatherDisplay:10.37,2013-01-07 15:48:00,
2013-01-07 10:53:00,27.3,22.5,30.39,SW,228,7.1,9.2,82,0.00,BKN,,0.00,WeatherDisplay:10.37,2013-01-07 15:53:00,
2013-01-07 10:58:00,27.5,22.7,30.39,West,274,5.2,8.1,82,0.00,BKN,,0.00,WeatherDisplay:10.37,2013-01-07 15:58:00,
2013-01-07 11:03:00,27.8,23.3,30.39,SW,214,7.5,9.2,83,0.00,BKN,,0.00,WeatherDisplay:10.37,2013-01-07 16:03:00,
2013-01-07 11:08:00,28.0,23.5,30.39,SSW,202,5.0,5.8,83,0.00,BKN,,0.00,WeatherDisplay:10.37,2013-01-07 16:08:00,
2013-01-07 11:13:00,28.3,23.2,30.39,SSW,205,5.7,10.4,81,0.00,BKN,,0.00,WeatherDisplay:10.37,2013-01-07 16:13:00,
2013-01-07 11:18:00,28.6,23.5,30.39,WSW,240,4.8,8.1,81,0.00,BKN,,0.00,WeatherDisplay:10.37,2013-01-07 16:18:00,
2013-01-07 11:23:00,28.8,23.4,30.39,SW,219,4.5,9.2,80,0.00,BKN,,0.00,WeatherDisplay:10.37,2013-01-07 16:23:00,
2013-01-07 11:28:00,28.9,23.2,30.39,South,172,8.4,10.4,79,0.00,BKN,,0.00,WeatherDisplay:10.37,2013-01-07 16:28:00,
2013-01-07 11:33:00,28.6,22.9,30.38,SW,219,6.7,8.0,79,0.00,BKN,,0.00,WeatherDisplay:10.37,2013-01-07 16:33:00,
2013-01-07 11:38:00,28.4,22.7,30.38,SSW,200,7.3,12.7,79,0.00,BKN,,0.00,WeatherDisplay:10.37,2013-01-07 16:38:00,
2013-01-07 11:43:00,28.7,23.0,30.38,SSW,203,9.6,13.8,79,0.00,BKN,,0.00,WeatherDisplay:10.37,2013-01-07 16:43:00,
2013-01-07 11:48:00,29.0,23.0,30.38,WSW,245,10.6,12.7,78,0.00,BKN,,0.00,WeatherDisplay:10.37,2013-01-07 16:48:00,
2013-01-07 11:53:00,29.5,23.2,30.38,SW,222,11.8,12.7,77,0.00,BKN,,0.00,WeatherDisplay:10.37,2013-01-07 16:53:00,
2013-01-07 11:58:00,29.7,23.1,30.37,SW,228,9.7,11.5,76,0.00,BKN,,0.00,WeatherDisplay:10.37,2013-01-07 16:58:00,
2013-01-07 12:03:00,29.9,23.3,30.37,SSW,198,6.4,12.7,76,0.00,BKN,,0.00,WeatherDisplay:10.37,2013-01-07 17:03:00,
2013-01-07 12:08:00,30.0,23.4,30.37,SW,214,9.1,11.5,76,0.00,BKN,,0.00,WeatherDisplay:10.37,2013-01-07 17:08:00,
2013-01-07 12:13:00,30.1,23.1,30.37,South,185,8.4,11.5,75,0.00,BKN,,0.00,WeatherDisplay:10.37,2013-01-07 17:13:00,
2013-01-07 12:18:00,30.4,23.4,30.37,WSW,247,7.3,11.5,75,0.00,BKN,,0.00,WeatherDisplay:10.37,2013-01-07 17:18:00,
2013-01-07 12:23:00,30.2,23.5,30.37,West,262,10.2,15.0,76,0.00,BKN,,0.00,WeatherDisplay:10.37,2013-01-07 17:23:00,
2013-01-07 12:28:00,30.1,22.8,30.37,SSW,212,11.8,13.0,74,0.00,BKN,,0.00,WeatherDisplay:10.37,2013-01-07 17:28:00,
2013-01-07 12:33:00,30.0,23.0,30.37,WSW,239,10.3,12.7,75,0.00,BKN,,0.00,WeatherDisplay:10.37,2013-01-07 17:33:00,
2013-01-07 12:38:00,30.0,23.0,30.37,West,263,10.5,12.7,75,0.00,BKN,,0.00,WeatherDisplay:10.37,2013-01-07 17:38:00,
2013-01-07 12:43:00,29.9,22.9,30.36,SSW,197,9.0,11.5,75,0.00,BKN,,0.00,WeatherDisplay:10.37,2013-01-07 17:43:00,
2013-01-07 12:48:00,29.9,22.6,30.36,SW,226,13.6,17.3,74,0.00,BKN,,0.00,WeatherDisplay:10.37,2013-01-07 17:48:00,
2013-01-07 12:53:00,29.8,22.5,30.36,SW,233,12.2,18.4,74,0.00,BKN,,0.00,WeatherDisplay:10.37,2013-01-07 17:53:00,
2013-01-07 12:58:00,30.0,22.7,30.36,WSW,239,8.1,11.5,74,0.00,BKN,,0.00,WeatherDisplay:10.37,2013-01-07 17:58:00,
2013-01-07 13:03:00,30.1,23.4,30.36,WSW,253,9.2,12.7,76,0.00,OVC,,0.00,WeatherDisplay:10.37,2013-01-07 18:03:00,
2013-01-07 13:08:00,30.1,23.4,30.36,SW,214,5.6,10.4,76,0.00,OVC,,0.00,WeatherDisplay:10.37,2013-01-07 18:08:00,
2013-01-07 13:13:00,30.3,23.6,30.36,SW,229,4.5,7.0,76,0.00,OVC,,0.00,WeatherDisplay:10.37,2013-01-07 18:13:00,
2013-01-07 13:18:00,30.4,23.4,30.35,SW,235,5.6,6.9,75,0.00,OVC,,0.00,WeatherDisplay:10.37,2013-01-07 18:18:00,
2013-01-07 13:23:00,30.4,23.1,30.35,SSW,207,7.0,9.2,74,0.00,OVC,,0.00,WeatherDisplay:10.37,2013-01-07 18:23:00,
2013-01-07 13:28:00,30.5,23.5,30.35,SW,221,6.0,6.9,75,0.00,OVC,,0.00,WeatherDisplay:10.37,2013-01-07 18:28:00,
2013-01-07 13:33:00,30.5,23.5,30.35,SSW,207,4.5,5.8,75,0.00,OVC,,0.00,WeatherDisplay:10.37,2013-01-07 18:33:00,
2013-01-07 13:38:00,30.7,23.7,30.34,SSW,211,5.1,8.1,75,0.00,OVC,,0.00,WeatherDisplay:10.37,2013-01-07 18:38:00,
2013-01-07 13:43:00,30.9,23.9,30.34,SSW,205,4.8,6.9,75,0.00,OVC,,0.00,WeatherDisplay:10.37,2013-01-07 18:43:00,
2013-01-07 13:49:00,30.9,23.9,30.34,SW,228,6.4,9.2,75,0.00,OVC,,0.00,WeatherDisplay:10.37,2013-01-07 18:49:00,
2013-01-07 13:54:00,31.2,24.2,30.33,SSW,193,3.9,7.0,75,0.00,OVC,,0.00,WeatherDisplay:10.37,2013-01-07 18:54:00,
2013-01-07 13:59:00,31.4,24.4,30.33,SSE,160,5.8,9.2,75,0.00,OVC,,0.00,WeatherDisplay:10.37,2013-01-07 18:59:00,
2013-01-07 14:04:00,31.4,24.1,30.33,SW,219,5.9,8.1,74,0.00,OVC,,0.00,WeatherDisplay:10.37,2013-01-07 19:04:00,
2013-01-07 14:09:00,31.5,24.5,30.33,SSW,201,6.4,9.2,75,0.00,OVC,,0.00,WeatherDisplay:10.37,2013-01-07 19:09:00,
2013-01-07 14:14:00,31.6,24.6,30.33,SE,143,6.7,10.4,75,0.00,OVC,,0.00,WeatherDisplay:10.37,2013-01-07 19:14:00,
2013-01-07 14:19:00,31.6,24.6,30.33,South,179,5.7,9.2,75,0.00,OVC,,0.00,WeatherDisplay:10.37,2013-01-07 19:19:00,
2013-01-07 14:24:00,31.7,24.7,30.33,SSE,162,6.6,11.5,75,0.00,OVC,,0.00,WeatherDisplay:10.37,2013-01-07 19:24:00,
2013-01-07 14:29:00,31.7,25.0,30.33,SSE,160,5.5,9.2,76,0.00,OVC,,0.00,WeatherDisplay:10.37,2013-01-07 19:29:00,
2013-01-07 14:34:00,31.8,25.1,30.33,West,264,4.4,5.8,76,0.00,OVC,,0.00,WeatherDisplay:10.37,2013-01-07 19:34:00,
2013-01-07 14:39:00,31.9,25.2,30.32,SSW,210,4.8,8.1,76,0.00,OVC,,0.00,WeatherDisplay:10.37,2013-01-07 19:39:00,
2013-01-07 14:44:00,32.0,25.3,30.32,SSW,201,5.8,8.1,76,0.00,OVC,,0.00,WeatherDisplay:10.37,2013-01-07 19:44:00,
2013-01-07 14:49:00,32.1,25.4,30.32,SSW,199,5.0,5.8,76,0.00,OVC,,0.00,WeatherDisplay:10.37,2013-01-07 19:49:00,
2013-01-07 14:54:00,32.2,25.5,30.32,SSW,195,4.6,11.5,76,0.00,OVC,,0.00,WeatherDisplay:10.37,2013-01-07 19:54:00,
2013-01-07 14:59:00,32.3,25.6,30.32,SW,214,4.0,8.1,76,0.00,OVC,,0.00,WeatherDisplay:10.37,2013-01-07 19:59:00,
2013-01-07 15:04:00,32.4,25.7,30.32,SSW,205,4.7,8.1,76,0.00,OVC,,0.00,WeatherDisplay:10.37,2013-01-07 20:04:00,
2013-01-07 15:09:00,32.5,25.8,30.32,SSW,207,6.7,8.1,76,0.00,OVC,,0.00,WeatherDisplay:10.37,2013-01-07 20:09:00,
2013-01-07 15:14:00,32.5,25.8,30.31,SSW,197,4.7,6.0,76,0.00,OVC,,0.00,WeatherDisplay:10.37,2013-01-07 20:14:00,
2013-01-07 15:19:00,32.6,25.9,30.31,SSW,204,7.0,10.4,76,0.00,OVC,,0.00,WeatherDisplay:10.37,2013-01-07 20:19:00,
2013-01-07 15:24:00,32.7,26.0,30.31,SSW,206,5.6,8.1,76,0.00,OVC,,0.00,WeatherDisplay:10.37,2013-01-07 20:24:00,
2013-01-07 15:29:00,32.8,25.7,30.31,SSW,198,4.8,8.1,75,0.00,OVC,,0.00,WeatherDisplay:10.37,2013-01-07 20:29:00,
2013-01-07 15:34:00,32.9,25.8,30.30,South,191,7.0,8.1,75,0.00,OVC,,0.00,WeatherDisplay:10.37,2013-01-07 20:34:00,
2013-01-07 15:39:00,33.0,25.9,30.30,SSW,194,6.7,12.7,75,0.00,OVC,,0.00,WeatherDisplay:10.37,2013-01-07 20:39:00,
2013-01-07 15:44:00,33.1,26.0,30.29,SSE,167,6.2,10.4,75,0.00,OVC,,0.00,WeatherDisplay:10.37,2013-01-07 20:44:00,
2013-01-07 15:49:00,33.1,25.7,30.29,SSW,204,7.4,11.5,74,0.00,OVC,,0.00,WeatherDisplay:10.37,2013-01-07 20:49:00,
2013-01-07 15:54:00,33.2,25.8,30.29,SSE,149,6.2,9.2,74,0.00,OVC,,0.00,WeatherDisplay:10.37,2013-01-07 20:54:00,
2013-01-07 15:59:00,33.2,26.1,30.28,South,186,7.2,11.5,75,0.00,OVC,,0.00,WeatherDisplay:10.37,2013-01-07 20:59:00,
2013-01-07 16:04:00,33.2,26.1,30.28,SSE,155,3.4,5.0,75,0.00,OVC,,0.00,WeatherDisplay:10.37,2013-01-07 21:04:00,
2013-01-07 16:09:00,33.2,26.1,30.28,South,174,6.2,8.1,75,0.00,OVC,,0.00,WeatherDisplay:10.37,2013-01-07 21:09:00,
2013-01-07 16:14:00,33.2,26.1,30.28,SSW,197,5.7,9.2,75,0.00,OVC,,0.00,WeatherDisplay:10.37,2013-01-07 21:14:00,
2013-01-07 16:19:00,33.2,26.1,30.28,SSW,201,6.4,10.0,75,0.00,OVC,,0.00,WeatherDisplay:10.37,2013-01-07 21:19:00,
2013-01-07 16:24:00,33.4,26.3,30.28,South,188,6.7,11.5,75,0.00,OVC,,0.00,WeatherDisplay:10.37,2013-01-07 21:24:00,
2013-01-07 16:29:00,33.5,26.4,30.28,SW,227,7.3,11.5,75,0.00,OVC,,0.00,WeatherDisplay:10.37,2013-01-07 21:29:00,
2013-01-07 16:34:00,33.6,26.5,30.27,SSE,154,5.4,9.2,75,0.00,OVC,,0.00,WeatherDisplay:10.37,2013-01-07 21:34:00,
2013-01-07 16:39:00,33.6,26.5,30.27,SSW,198,5.7,6.9,75,0.00,OVC,,0.00,WeatherDisplay:10.37,2013-01-07 21:39:00,
2013-01-07 16:44:00,33.6,26.5,30.27,SSE,160,7.0,11.5,75,0.00,OVC,,0.00,WeatherDisplay:10.37,2013-01-07 21:44:00,
2013-01-07 16:49:00,33.6,26.5,30.26,South,170,7.6,10.0,75,0.00,OVC,,0.00,WeatherDisplay:10.37,2013-01-07 21:49:00,
2013-01-07 16:54:00,33.6,26.5,30.26,South,177,5.4,7.0,75,0.00,OVC,,0.00,WeatherDisplay:10.37,2013-01-07 21:54:00,
2013-01-07 16:59:00,33.6,26.5,30.26,South,172,5.4,8.1,75,0.00,OVC,,0.00,WeatherDisplay:10.37,2013-01-07 21:59:00,
2013-01-07 17:04:00,33.6,26.5,30.26,SW,229,5.2,8.1,75,0.00,OVC,,0.00,WeatherDisplay:10.37,2013-01-07 22:04:00,
2013-01-07 17:09:00,33.6,26.5,30.26,SSW,197,6.4,13.8,75,0.00,OVC,,0.00,WeatherDisplay:10.37,2013-01-07 22:09:00,
2013-01-07 17:14:00,33.6,26.5,30.25,SSW,205,7.7,12.7,75,0.00,OVC,,0.00,WeatherDisplay:10.37,2013-01-07 22:14:00,
2013-01-07 17:19:00,33.6,26.5,30.26,SSW,210,6.5,12.7,75,0.00,OVC,,0.00,WeatherDisplay:10.37,2013-01-07 22:19:00,
2013-01-07 17:24:00,33.5,26.4,30.26,SW,221,5.4,8.0,75,0.00,OVC,,0.00,WeatherDisplay:10.37,2013-01-07 22:24:00,
2013-01-07 17:29:00,33.5,26.4,30.25,SSW,194,5.2,9.2,75,0.00,OVC,,0.00,WeatherDisplay:10.37,2013-01-07 22:29:00,
2013-01-07 17:34:00,33.4,26.3,30.25,SSE,167,6.5,9.0,75,0.00,OVC,,0.00,WeatherDisplay:10.37,2013-01-07 22:34:00,
2013-01-07 17:39:00,33.3,25.9,30.25,SW,219,5.7,10.4,74,0.00,OVC,,0.00,WeatherDisplay:10.37,2013-01-07 22:39:00,
2013-01-07 17:44:00,33.1,26.0,30.25,SSW,201,4.1,9.0,75,0.00,OVC,,0.00,WeatherDisplay:10.37,2013-01-07 22:44:00,
2013-01-07 17:49:00,32.9,25.8,30.25,SSE,163,5.3,6.0,75,0.00,OVC,,0.00,WeatherDisplay:10.37,2013-01-07 22:49:00,
2013-01-07 17:54:00,32.7,25.6,30.25,SW,219,4.6,9.0,75,0.00,OVC,,0.00,WeatherDisplay:10.37,2013-01-07 22:54:00,
2013-01-07 17:59:00,32.6,25.6,30.25,South,182,4.4,5.8,75,0.00,OVC,,0.00,WeatherDisplay:10.37,2013-01-07 22:59:00,
2013-01-07 18:04:00,32.4,25.4,30.24,South,188,4.1,8.1,75,0.00,BKN,,0.00,WeatherDisplay:10.37,2013-01-07 23:04:00,
2013-01-07 18:09:00,32.2,25.5,30.24,SSE,167,5.2,7.0,76,0.00,BKN,,0.00,WeatherDisplay:10.37,2013-01-07 23:09:00,
2013-01-07 18:14:00,31.9,25.2,30.24,SSE,159,3.8,8.0,76,0.00,BKN,,0.00,WeatherDisplay:10.37,2013-01-07 23:14:00,
2013-01-07 18:19:00,31.8,25.1,30.24,SSE,164,4.3,7.0,76,0.00,SCT,,0.00,WeatherDisplay:10.37,2013-01-07 23:19:00,
2013-01-07 18:24:00,31.6,25.2,30.24,SSE,163,3.9,5.0,77,0.00,SCT,,0.00,WeatherDisplay:10.37,2013-01-07 23:24:00,
2013-01-07 18:29:00,31.5,25.1,30.24,SSW,201,5.2,7.0,77,0.00,SCT,,0.00,WeatherDisplay:10.37,2013-01-07 23:29:00,
2013-01-07 18:34:00,31.4,25.0,30.24,SSW,193,3.4,6.9,77,0.00,SCT,,0.00,WeatherDisplay:10.37,2013-01-07 23:34:00,
2013-01-07 18:39:00,31.3,25.2,30.24,South,188,2.7,4.6,78,0.00,SCT,,0.00,WeatherDisplay:10.37,2013-01-07 23:39:00,
2013-01-07 18:44:00,31.1,25.0,30.24,South,187,3.2,4.6,78,0.00,SCT,,0.00,WeatherDisplay:10.37,2013-01-07 23:44:00,
2013-01-07 18:49:00,30.9,24.8,30.24,South,176,3.3,5.8,78,0.00,SCT,,0.00,WeatherDisplay:10.37,2013-01-07 23:49:00,
2013-01-07 18:54:00,30.7,25.0,30.23,South,169,4.1,6.0,79,0.00,SCT,,0.00,WeatherDisplay:10.37,2013-01-07 23:54:00,
2013-01-07 18:59:00,30.7,25.0,30.23,South,188,2.2,3.5,79,0.00,SCT,,0.00,WeatherDisplay:10.37,2013-01-07 23:59:00,
2013-01-07 19:04:00,30.6,24.9,30.23,SSE,163,4.1,6.9,79,0.00,FEW,,0.00,WeatherDisplay:10.37,2013-01-08 00:04:00,
2013-01-07 19:09:00,30.6,24.9,30.23,South,181,3.5,6.9,79,0.00,FEW,,0.00,WeatherDisplay:10.37,2013-01-08 00:09:00,
2013-01-07 19:14:00,30.6,25.2,30.23,SW,215,4.9,6.9,80,0.00,FEW,,0.00,WeatherDisplay:10.37,2013-01-08 00:14:00,
2013-01-07 19:19:00,30.5,25.1,30.23,South,183,4.1,10.4,80,0.00,FEW,,0.00,WeatherDisplay:10.37,2013-01-08 00:19:00,
2013-01-07 19:24:00,30.6,25.2,30.22,SSE,161,4.6,10.4,80,0.00,FEW,,0.00,WeatherDisplay:10.37,2013-01-08 00:24:00,
2013-01-07 19:29:00,30.7,25.3,30.22,SW,219,4.6,9.2,80,0.00,FEW,,0.00,WeatherDisplay:10.37,2013-01-08 00:29:00,
2013-01-07 19:34:00,30.7,25.3,30.22,SSW,193,4.9,6.0,80,0.00,FEW,,0.00,WeatherDisplay:10.37,2013-01-08 00:34:00,
2013-01-07 19:39:00,30.6,25.2,30.22,South,183,8.1,11.5,80,0.00,FEW,,0.00,WeatherDisplay:10.37,2013-01-08 00:39:00,
2013-01-07 19:44:00,30.8,25.4,30.22,SW,226,5.5,9.2,80,0.00,FEW,,0.00,WeatherDisplay:10.37,2013-01-08 00:44:00,
2013-01-07 19:49:00,30.7,25.3,30.22,South,184,4.8,6.9,80,0.00,FEW,,0.00,WeatherDisplay:10.37,2013-01-08 00:49:00,
2013-01-07 19:54:00,30.6,25.2,30.22,SSW,211,6.3,9.2,80,0.00,FEW,,0.00,WeatherDisplay:10.37,2013-01-08 00:54:00,
2013-01-07 19:59:00,30.6,25.2,30.22,SSE,153,4.9,5.8,80,0.00,FEW,,0.00,WeatherDisplay:10.37,2013-01-08 00:59:00,
2013-01-07 20:04:00,30.6,25.5,30.22,SSE,163,4.5,8.1,81,0.00,CLR,,0.00,WeatherDisplay:10.37,2013-01-08 01:04:00,
2013-01-07 20:09:00,30.6,25.5,30.22,SW,218,5.3,10.4,81,0.00,CLR,,0.00,WeatherDisplay:10.37,2013-01-08 01:09:00,
2013-01-07 20:14:00,30.6,25.5,30.22,SSW,195,4.9,8.0,81,0.00,CLR,,0.00,WeatherDisplay:10.37,2013-01-08 01:14:00,
2013-01-07 20:19:00,30.5,25.4,30.22,SSW,204,4.7,6.9,81,0.00,CLR,,0.00,WeatherDisplay:10.37,2013-01-08 01:19:00,
2013-01-07 20:24:00,30.4,25.3,30.22,SSW,197,5.0,9.0,81,0.00,CLR,,0.00,WeatherDisplay:10.37,2013-01-08 01:24:00,
2013-01-07 20:29:00,30.3,25.2,30.22,SSW,194,2.8,6.0,81,0.00,CLR,,0.00,WeatherDisplay:10.37,2013-01-08 01:29:00,
2013-01-07 20:34:00,30.2,25.1,30.23,SW,221,3.8,6.9,81,0.00,FEW,,0.00,WeatherDisplay:10.37,2013-01-08 01:34:00,
2013-01-07 20:39:00,30.0,24.9,30.23,SSW,208,3.0,6.0,81,0.00,FEW,,0.00,WeatherDisplay:10.37,2013-01-08 01:39:00,
2013-01-07 20:44:00,29.8,25.0,30.23,East,92,4.4,5.8,82,0.00,FEW,,0.00,WeatherDisplay:10.37,2013-01-08 01:44:00,
2013-01-07 20:49:00,29.7,24.9,30.22,South,190,4.2,5.8,82,0.00,FEW,,0.00,WeatherDisplay:10.37,2013-01-08 01:49:00,
2013-01-07 20:54:00,29.6,24.8,30.22,SSW,208,6.0,10.0,82,0.00,FEW,,0.00,WeatherDisplay:10.37,2013-01-08 01:54:00,
2013-01-07 20:59:00,29.6,25.1,30.22,SW,218,5.5,8.1,83,0.00,FEW,,0.00,WeatherDisplay:10.37,2013-01-08 01:59:00,
2013-01-07 21:04:00,29.7,24.9,30.22,SW,225,3.0,5.0,82,0.00,CLR,,0.00,WeatherDisplay:10.37,2013-01-08 02:04:00,
2013-01-07 21:09:00,29.6,24.8,30.22,SSW,199,6.7,11.5,82,0.00,CLR,,0.00,WeatherDisplay:10.37,2013-01-08 02:09:00,
2013-01-07 21:14:00,29.6,24.8,30.22,South,187,4.3,8.1,82,0.00,CLR,,0.00,WeatherDisplay:10.37,2013-01-08 02:14:00,
2013-01-07 21:19:00,29.6,24.8,30.22,South,181,4.4,6.9,82,0.00,CLR,,0.00,WeatherDisplay:10.37,2013-01-08 02:19:00,
2013-01-07 21:24:00,29.7,25.2,30.21,SSW,194,7.2,10.4,83,0.00,CLR,,0.00,WeatherDisplay:10.37,2013-01-08 02:24:00,
2013-01-07 21:29:00,29.8,25.0,30.21,SW,217,7.1,11.5,82,0.00,CLR,,0.00,WeatherDisplay:10.37,2013-01-08 02:29:00,
2013-01-07 21:34:00,29.8,25.0,30.20,SSW,196,8.0,12.0,82,0.00,CLR,,0.00,WeatherDisplay:10.37,2013-01-08 02:34:00,
2013-01-07 21:39:00,29.8,25.0,30.20,SSW,198,7.0,12.0,82,0.00,CLR,,0.00,WeatherDisplay:10.37,2013-01-08 02:39:00,
2013-01-07 21:44:00,30.0,25.2,30.20,SSW,211,6.8,12.0,82,0.00,CLR,,0.00,WeatherDisplay:10.37,2013-01-08 02:44:00,
2013-01-07 21:49:00,30.0,25.2,30.20,SW,217,7.1,8.0,82,0.00,CLR,,0.00,WeatherDisplay:10.37,2013-01-08 02:49:00,
2013-01-07 21:54:00,30.0,25.2,30.20,SSW,194,7.2,9.2,82,0.00,CLR,,0.00,WeatherDisplay:10.37,2013-01-08 02:54:00,
2013-01-07 21:59:00,30.0,25.2,30.20,South,181,7.6,11.5,82,0.00,CLR,,0.00,WeatherDisplay:10.37,2013-01-08 02:59:00,
2013-01-07 22:04:00,30.1,25.3,30.19,SE,142,7.6,11.5,82,0.00,CLR,,0.00,WeatherDisplay:10.37,2013-01-08 03:04:00,
2013-01-07 22:09:00,30.2,25.1,30.19,SSW,196,7.0,17.0,81,0.00,CLR,,0.00,WeatherDisplay:10.37,2013-01-08 03:09:00,
2013-01-07 22:14:00,30.2,25.1,30.19,SSW,200,7.0,16.0,81,0.00,CLR,,0.00,WeatherDisplay:10.37,2013-01-08 03:14:00,
2013-01-07 22:19:00,30.3,25.2,30.19,SSW,212,7.3,13.8,81,0.00,CLR,,0.00,WeatherDisplay:10.37,2013-01-08 03:19:00,
2013-01-07 22:24:00,30.2,25.1,30.19,SSW,198,6.1,11.5,81,0.00,CLR,,0.00,WeatherDisplay:10.37,2013-01-08 03:24:00,
2013-01-07 22:30:00,30.2,25.1,30.19,West,261,9.2,15.0,81,0.00,CLR,,0.00,WeatherDisplay:10.37,2013-01-08 03:30:00,
2013-01-07 22:35:00,30.2,25.1,30.19,SSW,212,8.6,13.0,81,0.00,CLR,,0.00,WeatherDisplay:10.37,2013-01-08 03:35:00,
2013-01-07 22:39:00,30.3,25.2,30.19,SW,222,8.8,13.8,81,0.00,CLR,,0.00,WeatherDisplay:10.37,2013-01-08 03:39:00,
2013-01-07 22:44:00,30.3,24.9,30.19,South,180,11.6,13.8,80,0.00,CLR,,0.00,WeatherDisplay:10.37,2013-01-08 03:44:00,
2013-01-07 22:49:00,30.3,24.9,30.19,SSW,202,7.0,14.0,80,0.00,CLR,,0.00,WeatherDisplay:10.37,2013-01-08 03:49:00,
2013-01-07 22:54:00,30.3,24.9,30.19,South,191,10.4,15.0,80,0.00,CLR,,0.00,WeatherDisplay:10.37,2013-01-08 03:54:00,
2013-01-07 23:00:00,30.4,25.0,30.19,SW,229,4.8,8.1,80,0.00,CLR,,0.00,WeatherDisplay:10.37,2013-01-08 04:00:00,
2013-01-07 23:05:00,30.2,24.8,30.19,SW,217,6.8,10.4,80,0.00,CLR,,0.00,WeatherDisplay:10.37,2013-01-08 04:05:00,
2013-01-07 23:10:00,30.1,24.7,30.19,SSW,210,5.1,8.1,80,0.00,CLR,,0.00,WeatherDisplay:10.37,2013-01-08 04:10:00,
2013-01-07 23:15:00,30.0,24.9,30.19,SSW,212,7.3,11.5,81,0.00,CLR,,0.00,WeatherDisplay:10.37,2013-01-08 04:15:00,
2013-01-07 23:20:00,30.0,24.9,30.19,SW,221,7.6,11.5,81,0.00,CLR,,0.00,WeatherDisplay:10.37,2013-01-08 04:20:00,
2013-01-07 23:25:00,30.0,24.9,30.19,SSE,149,7.4,10.4,81,0.00,CLR,,0.00,WeatherDisplay:10.37,2013-01-08 04:25:00,
2013-01-07 23:30:00,30.0,24.9,30.19,South,188,7.3,11.5,81,0.00,CLR,,0.00,WeatherDisplay:10.37,2013-01-08 04:30:00,
2013-01-07 23:35:00,29.8,24.7,30.18,South,188,6.4,9.2,81,0.00,CLR,,0.00,WeatherDisplay:10.37,2013-01-08 04:35:00,
2013-01-07 23:40:00,29.8,24.7,30.18,SSW,199,7.3,12.7,81,0.00,CLR,,0.00,WeatherDisplay:10.37,2013-01-08 04:40:00,
2013-01-07 23:45:00,29.7,24.6,30.18,SW,222,7.2,11.5,81,0.00,CLR,,0.00,WeatherDisplay:10.37,2013-01-08 04:45:00,
2013-01-07 23:50:00,29.7,24.6,30.18,SW,228,5.8,9.2,81,0.00,CLR,,0.00,WeatherDisplay:10.37,2013-01-08 04:50:00,
2013-01-07 23:55:00,29.6,24.5,30.18,SW,221,6.5,11.5,81,0.00,CLR,,0.00,WeatherDisplay:10.37,2013-01-08 04:55:00,